#timestamp,LO_Frequency,Hit,StdDev 
1539882015.6,286047007.6,P
1539882035.5,286047008.9,Y
1539882055.3,286047005.2,P
1539882075.1,286047006.1,P
1539882095.9,286047010.6,P
1539882115.7,286047012.8,Y
1539882135.5,286047010.3,P
1539882155.4,286047010.3,P
1539882175.2,286047010.6,P
1539882195.1,286047010.6,Y
1539882196.0,286047010.6,P
1539882215.8,286047000.5,N
1539882235.6,286047002.4,N
1539882255.5,286046999.7,N
1539882275.3,286047002.4,N
1539882295.1,286047001.6,N
1539882315.9,286047001.7,N
1539882335.7,286047003.4,N
1539882355.6,286047007.3,N
1539882375.4,286047008.0,N
1539882395.2,286047009.4,N
1539882415.1,286047013.5,Y
1539882416.0,286047013.5,P
1539882435.8,286047011.6,N
1539882455.6,286047011.2,N
1539882475.5,286047015.4,Y
1539882495.3,286047005.4,P
1539882515.2,286047007.2,N
1539882535.9,286047007.1,P
1539882555.7,286047006.7,Y
1539882575.6,286047002.0,P
1539882595.4,286047005.6,N
1539882615.3,286047005.3,N
1539882635.1,286047009.0,Y
1539882636.0,286047009.0,P
1539882655.8,286047004.7,N
1539882675.7,286047007.4,P
1539882695.5,286047008.6,Y
1539882715.3,286047005.1,P
1539882735.2,286047009.0,P
1539882755.0,286047008.8,P
1539882755.9,286047008.8,Y
1539882775.8,286047000.6,P
1539882795.6,286047003.0,N
1539882815.4,286047007.3,N
1539882835.3,286047007.4,N
1539882855.1,286047008.2,N
1539882875.9,286047010.4,Y
1539882895.7,286047007.4,P
1539882915.5,286047004.9,P
1539882935.4,286047010.4,P
1539882955.2,286047010.1,Y
1539882975.0,286047006.0,P
1539882975.9,286047006.0,P
1539882995.8,286047005.1,P
1539883015.6,286047005.7,Y
1539883035.5,286046999.4,P
1539883055.3,286046998.9,N
1539883075.1,286047000.0,N
1539883095.9,286047002.2,N
1539883115.7,286047004.2,N
1539883135.5,286047004.4,N
1539883155.4,286047003.7,N
1539883175.2,286047003.2,N
1539883195.1,286047005.0,N
1539883196.0,286047005.0,N
1539883215.8,286047007.3,Y
1539883235.6,286047005.7,P
1539883255.5,286047006.7,P
1539883275.3,286047006.2,P
1539883295.1,286047010.1,Y
1539883315.9,286047004.7,P
1539883335.7,286047007.4,P
1539883355.6,286047007.3,P
1539883375.4,286047008.8,Y
1539883395.2,286047002.3,P
1539883415.1,286047001.3,N
1539883416.0,286047001.3,N
1539883435.8,286047003.8,N
1539883455.6,286047005.5,N
1539883475.5,286047003.1,N
1539883495.3,286047011.9,Y
1539883515.2,286047005.3,P
1539883535.9,286047006.5,P
1539883555.7,286047006.2,P
1539883575.6,286047007.3,Y
1539883595.4,286046999.8,P
1539883615.2,286047002.0,N
1539883635.1,286047002.6,N
1539883636.0,286047002.6,N
1539883655.8,286047002.6,N
1539883675.7,286047003.5,N
1539883695.5,286047007.5,Y
1539883715.3,286047004.1,P
1539883735.2,286047001.3,N
1539883755.0,286047003.8,P
1539883755.9,286047003.8,Y
1539883775.8,286047001.8,P
1539883795.6,286047007.5,P
1539883815.4,286047008.8,P
1539883835.3,286047010.2,Y
1539883855.1,286047006.7,P
1539883875.8,286047010.3,P
1539883895.7,286047009.6,P
1539883915.5,286047009.9,Y
1539883935.4,286047002.3,P
1539883955.2,286047002.3,N
1539883975.0,286047002.3,N
1539883975.9,286047002.3,N
1539883995.8,286046999.9,N
1539884015.6,286047002.8,N
1539884035.4,286047000.9,N
1539884055.3,286047002.1,N
1539884075.1,286047002.7,N
1539884095.9,286047002.2,N
1539884115.7,286047002.0,N
1539884135.5,286047003.8,N
1539884155.4,286047006.0,Y
1539884175.2,286047003.4,P
1539884195.0,286047003.1,P
1539884195.9,286047003.1,P
1539884215.8,286047005.8,Y
1539884235.6,286047001.6,P
1539884255.5,286047007.5,P
1539884275.3,286047005.1,N
1539884295.1,286047006.6,N
1539884315.9,286047007.8,Y
1539884335.7,286047006.6,P
1539884355.6,286047008.8,P
1539884375.4,286047011.3,P
1539884395.2,286047013.5,Y
1539884415.1,286047004.7,P
1539884416.0,286047004.7,N
1539884435.8,286047007.4,P
1539884455.7,286047008.9,Y
1539884475.5,286047005.7,P
1539884495.3,286047004.7,P
1539884515.2,286047004.8,P
1539884535.9,286047005.2,Y
1539884555.7,286046999.9,P
1539884575.6,286047000.3,N
1539884595.4,286047005.6,N
1539884615.2,286047006.5,N
1539884635.1,286047007.9,N
1539884636.0,286047007.9,N
1539884655.8,286047010.7,Y
1539884675.7,286047006.9,P
1539884695.5,286047007.6,P
1539884715.3,286047006.4,P
1539884735.2,286047006.1,Y
1539884755.0,286047002.9,P
1539884755.9,286047002.9,N
1539884775.8,286047004.8,N
1539884795.6,286047007.6,Y
1539884815.4,286047003.9,P
1539884835.3,286047004.0,P
1539884855.1,286047004.2,P
1539884875.9,286047004.8,Y
1539884895.7,286047001.9,P
1539884915.5,286047001.4,N
1539884935.4,286047006.3,P
1539884955.2,286047009.2,Y
1539884975.0,286047005.0,P
1539884975.9,286047005.0,P
1539884995.8,286047007.2,P
1539885015.6,286047006.9,Y
1539885035.5,286047002.9,P
1539885055.3,286047002.9,N
1539885075.1,286047003.4,P
1539885095.9,286047003.1,Y
1539885115.7,286047000.3,P
1539885135.6,286046999.9,N
1539885155.4,286046999.7,N
1539885175.2,286047001.9,N
1539885195.1,286047002.1,N
1539885196.0,286047002.1,N
1539885215.8,286047001.9,N
1539885235.6,286047003.9,Y
1539885255.5,286047004.4,P
1539885275.3,286047001.7,N
1539885295.2,286047007.0,P
1539885315.9,286047007.7,Y
1539885335.7,286047010.3,P
1539885355.6,286047009.8,N
1539885375.4,286047011.8,P
1539885395.2,286047011.6,Y
1539885415.1,286047003.5,P
1539885416.0,286047003.5,N
1539885435.8,286047005.9,N
1539885455.7,286047003.3,N
1539885475.5,286047002.9,N
1539885495.3,286047004.5,N
1539885515.2,286047005.2,N
1539885535.0,286047007.6,Y
1539885535.9,286047007.6,P
1539885585.8,286047002.0,E
1539885595.7,286047001.9,N
